TimeEST,TemperatureF,Dew PointF,Humidity,Sea Level PressureIn,VisibilityMPH,Wind Direction,Wind SpeedMPH,Gust SpeedMPH,PrecipitationIn,Events,Conditions,WindDirDegrees,DateUTC
12:54 AM,36.0,26.1,67,29.96,-9999.0,NNW,9.2,-,N/A,,Unknown,330,2012-11-05 05:54:00
1:54 AM,36.0,26.1,67,29.96,-9999.0,NNW,10.4,-,N/A,,Unknown,330,2012-11-05 06:54:00
2:54 AM,36.0,26.1,67,29.97,-9999.0,NW,12.7,16.1,N/A,,Unknown,320,2012-11-05 07:54:00
3:54 AM,35.1,25.0,67,29.96,-9999.0,NW,9.2,-,N/A,,Unknown,320,2012-11-05 08:54:00
4:54 AM,35.1,25.0,67,29.97,-9999.0,NW,8.1,-,N/A,,Unknown,320,2012-11-05 09:54:00
5:54 AM,35.1,24.1,64,29.98,-9999.0,NNW,10.4,17.3,N/A,,Unknown,330,2012-11-05 10:54:00
6:54 AM,35.1,23.0,61,30.00,-9999.0,NNW,11.5,-,N/A,,Unknown,330,2012-11-05 11:54:00
7:54 AM,36.0,23.0,59,30.01,-9999.0,NW,6.9,-,N/A,,Unknown,320,2012-11-05 12:54:00
8:54 AM,37.9,23.0,55,30.01,-9999.0,NNW,10.4,16.1,N/A,,Unknown,340,2012-11-05 13:54:00
9:54 AM,37.9,21.9,53,30.01,-9999.0,NW,10.4,20.7,N/A,,Unknown,320,2012-11-05 14:54:00
10:54 AM,39.9,21.9,49,30.00,-9999.0,NNW,15.0,19.6,N/A,,Unknown,330,2012-11-05 15:54:00
11:54 AM,42.1,21.0,43,29.99,-9999.0,NNW,9.2,16.1,N/A,,Unknown,340,2012-11-05 16:54:00
12:54 PM,43.0,19.9,40,29.98,-9999.0,NW,10.4,18.4,N/A,,Unknown,320,2012-11-05 17:54:00
1:54 PM,44.1,19.9,38,29.98,-9999.0,NNW,8.1,17.3,N/A,,Unknown,340,2012-11-05 18:54:00
2:54 PM,42.1,19.9,41,30.00,-9999.0,NW,11.5,21.9,N/A,,Unknown,320,2012-11-05 19:54:00
3:54 PM,39.0,19.0,45,30.02,-9999.0,NNW,10.4,19.6,N/A,,Unknown,330,2012-11-05 20:54:00
4:54 PM,36.0,19.9,52,30.04,-9999.0,NW,10.4,17.3,N/A,,Unknown,310,2012-11-05 21:54:00
5:54 PM,36.0,19.0,50,30.07,-9999.0,NNW,10.4,18.4,N/A,,Unknown,340,2012-11-05 22:54:00
6:54 PM,34.0,19.0,54,30.09,-9999.0,NNW,11.5,17.3,N/A,,Unknown,330,2012-11-05 23:54:00
7:54 PM,33.1,19.0,56,30.11,-9999.0,NNW,11.5,17.3,N/A,,Unknown,340,2012-11-06 00:54:00
8:54 PM,30.9,19.0,61,30.13,-9999.0,NNW,10.4,-,N/A,,Unknown,330,2012-11-06 01:54:00
9:54 PM,30.9,17.1,57,30.14,-9999.0,NNW,9.2,-,N/A,,Unknown,340,2012-11-06 02:54:00
10:54 PM,28.0,19.0,69,30.14,-9999.0,NW,10.4,-,N/A,,Unknown,320,2012-11-06 03:54:00
11:54 PM,28.9,16.0,58,30.14,-9999.0,NNW,8.1,-,N/A,,Unknown,330,2012-11-06 04:54:00